| time (UTC) | temp F | wind direction | speed MPH | gust MPH | rain 1hr in | rain 24hr in | rain mn in | humidity % | barometer mb |
| 20260509233234 | 90 | 145 | 4.0 | 5.0 | 0.00 | 0.00 | 0.00 | 72 | 1011.8 |
| 20260509232730 | 90 | 113 | 3.0 | 5.0 | 0.00 | 0.00 | 0.00 | 71 | 1011.8 |
| 20260509232227 | 91 | 106 | 3.0 | 5.0 | 0.00 | 0.00 | 0.00 | 71 | 1011.5 |
| 20260509231723 | 91 | 49 | 1.0 | 1.0 | 0.00 | 0.00 | 0.00 | 70 | 1011.6 |
| 20260509231221 | 92 | 232 | 2.0 | 2.0 | 0.00 | 0.00 | 0.00 | 69 | 1011.5 |
| 20260509230718 | 93 | 180 | 1.0 | 1.0 | 0.00 | 0.00 | 0.00 | 65 | 1011.6 |
| 20260509230215 | 94 | 119 | 3.0 | 5.0 | 0.00 | 0.00 | 0.00 | 61 | 1011.6 |
| 20260509225710 | 95 | 193 | 1.0 | 2.0 | 0.00 | 0.00 | 0.00 | 48 | 1011.6 |
| 20260509225206 | 96 | 233 | 1.0 | 1.0 | 0.00 | 0.00 | 0.00 | 47 | 1011.5 |
| 20260509224702 | 96 | 131 | 3.0 | 5.0 | 0.00 | 0.00 | 0.00 | 46 | 1011.4 |
| 20260509224159 | 96 | 274 | 0.0 | 0.0 | 0.00 | 0.00 | 0.00 | 46 | 1011.3 |
| 20260509223656 | 96 | 207 | 3.0 | 6.0 | 0.00 | 0.00 | 0.00 | 46 | 1011.5 |
| 20260509223148 | 97 | 264 | 3.0 | 5.0 | 0.00 | 0.00 | 0.00 | 45 | 1011.7 |
| 20260509222645 | 96 | 196 | 4.0 | 6.0 | 0.00 | 0.00 | 0.00 | 45 | 1011.4 |
| 20260509222139 | 96 | 285 | 4.0 | 6.0 | 0.00 | 0.00 | 0.00 | 45 | 1011.4 |
| 20260509221636 | 98 | 90 | 2.0 | 5.0 | 0.00 | 0.00 | 0.00 | 43 | 1011.4 |
| 20260509221132 | 98 | 259 | 1.0 | 2.0 | 0.00 | 0.00 | 0.00 | 42 | 1011.4 |
| 20260509220628 | 98 | 309 | 1.0 | 1.0 | 0.00 | 0.00 | 0.00 | 42 | 1011.2 |
| 20260509220124 | 98 | 194 | 4.0 | 5.0 | 0.00 | 0.00 | 0.00 | 41 | 1011.5 |
| 20260509215620 | 98 | 218 | 8.0 | 9.0 | 0.00 | 0.00 | 0.00 | 42 | 1011.8 |
| 20260509215112 | 98 | 231 | 2.0 | 2.0 | 0.00 | 0.00 | 0.00 | 41 | 1011.7 |
| 20260509214609 | 99 | 184 | 7.0 | 8.0 | 0.00 | 0.00 | 0.00 | 41 | 1011.5 |
| 20260509214105 | 99 | 220 | 2.0 | 3.0 | 0.00 | 0.00 | 0.00 | 40 | 1011.6 |
| 20260509213601 | 99 | 197 | 4.0 | 6.0 | 0.00 | 0.00 | 0.00 | 39 | 1011.6 |
| 20260509213058 | 100 | 173 | 6.0 | 8.0 | 0.00 | 0.00 | 0.00 | 40 | 1011.6 |
| 20260509212555 | 98 | 216 | 5.0 | 6.0 | 0.00 | 0.00 | 0.00 | 41 | 1011.6 |
| 20260509212052 | 100 | 223 | 7.0 | 10.0 | 0.00 | 0.00 | 0.00 | 41 | 1011.4 |
| 20260509211548 | 99 | 263 | 1.0 | 1.0 | 0.00 | 0.00 | 0.00 | 41 | 1011.6 |
| 20260509211044 | 99 | 217 | 3.0 | 5.0 | 0.00 | 0.00 | 0.00 | 40 | 1011.8 |
| 20260509210541 | 99 | 216 | 3.0 | 5.0 | 0.00 | 0.00 | 0.00 | 41 | 1011.6 |
| 20260509210037 | 100 | 196 | 4.0 | 7.0 | 0.00 | 0.00 | 0.00 | 39 | 1011.8 |
| 20260509205532 | 98 | 252 | 3.0 | 3.0 | 0.00 | 0.00 | 0.00 | 42 | 1011.6 |
| 20260509205028 | 98 | 191 | 4.0 | 5.0 | 0.00 | 0.00 | 0.00 | 42 | 1011.7 |
| 20260509204524 | 98 | 131 | 3.0 | 6.0 | 0.00 | 0.00 | 0.00 | 42 | 1011.6 |
| 20260509204021 | 99 | 173 | 4.0 | 6.0 | 0.00 | 0.00 | 0.00 | 42 | 1011.7 |
| 20260509203516 | 98 | 233 | 4.0 | 6.0 | 0.00 | 0.00 | 0.00 | 41 | 1011.7 |
| 20260509203015 | 98 | 298 | 0.0 | 1.0 | 0.00 | 0.00 | 0.00 | 42 | 1012.0 |
| 20260509202509 | 99 | 208 | 3.0 | 3.0 | 0.00 | 0.00 | 0.00 | 41 | 1012.1 |
| 20260509202005 | 98 | 93 | 1.0 | 2.0 | 0.00 | 0.00 | 0.00 | 41 | 1012.0 |
| 20260509201500 | 97 | 216 | 6.0 | 8.0 | 0.00 | 0.00 | 0.00 | 40 | 1011.9 |
| 20260509200957 | 98 | 195 | 5.0 | 6.0 | 0.00 | 0.00 | 0.00 | 40 | 1012.1 |
| 20260509200452 | 98 | 282 | 3.0 | 6.0 | 0.00 | 0.00 | 0.00 | 39 | 1012.1 |
| 20260509195949 | 98 | 352 | 3.0 | 5.0 | 0.00 | 0.00 | 0.00 | 39 | 1012.2 |
| 20260509195444 | 98 | 189 | 8.0 | 10.0 | 0.00 | 0.00 | 0.00 | 39 | 1012.1 |
| 20260509194944 | 99 | 310 | 3.0 | 5.0 | 0.00 | 0.00 | 0.00 | 38 | 1012.3 |
| 20260509194440 | 99 | 173 | 7.0 | 10.0 | 0.00 | 0.00 | 0.00 | 37 | 1012.5 |
| 20260509193937 | 98 | 206 | 3.0 | 3.0 | 0.00 | 0.00 | 0.00 | 39 | 1012.5 |
| 20260509193436 | 99 | 182 | 4.0 | 5.0 | 0.00 | 0.00 | 0.00 | 37 | 1012.5 |
| 20260509192933 | 98 | 223 | 5.0 | 7.0 | 0.00 | 0.00 | 0.00 | 38 | 1012.6 |
| 20260509192430 | 98 | 289 | 1.0 | 2.0 | 0.00 | 0.00 | 0.00 | 39 | 1012.7 |
| 20260509191925 | 99 | 187 | 3.0 | 6.0 | 0.00 | 0.00 | 0.00 | 37 | 1012.8 |
| 20260509191420 | 99 | 204 | 3.0 | 5.0 | 0.00 | 0.00 | 0.00 | 36 | 1013.0 |
| 20260509190916 | 98 | 198 | 6.0 | 9.0 | 0.00 | 0.00 | 0.00 | 39 | 1012.9 |
| 20260509190414 | 99 | 238 | 2.0 | 3.0 | 0.00 | 0.00 | 0.00 | 38 | 1013.1 |
| 20260509185912 | 99 | 216 | 9.0 | 11.0 | 0.00 | 0.00 | 0.00 | 39 | 1013.1 |
| 20260509185409 | 98 | 279 | 4.0 | 5.0 | 0.00 | 0.00 | 0.00 | 41 | 1013.0 |
| 20260509184905 | 99 | 318 | 4.0 | 6.0 | 0.00 | 0.00 | 0.00 | 39 | 1013.1 |
| 20260509184402 | 98 | 119 | 7.0 | 10.0 | 0.00 | 0.00 | 0.00 | 41 | 1013.2 |
| 20260509183859 | 98 | 211 | 1.0 | 2.0 | 0.00 | 0.00 | 0.00 | 41 | 1013.2 |
| 20260509183354 | 98 | 177 | 5.0 | 6.0 | 0.00 | 0.00 | 0.00 | 41 | 1013.2 |
| 20260509182850 | 98 | 254 | 2.0 | 3.0 | 0.00 | 0.00 | 0.00 | 42 | 1013.1 |
| 20260509182347 | 98 | 175 | 5.0 | 8.0 | 0.00 | 0.00 | 0.00 | 42 | 1013.0 |
| 20260509181844 | 98 | 262 | 3.0 | 3.0 | 0.00 | 0.00 | 0.00 | 43 | 1013.2 |
| 20260509181342 | 98 | 287 | 4.0 | 5.0 | 0.00 | 0.00 | 0.00 | 42 | 1013.1 |
| 20260509180839 | 97 | 215 | 9.0 | 13.0 | 0.00 | 0.00 | 0.00 | 43 | 1013.1 |
| 20260509180335 | 98 | 200 | 7.0 | 8.0 | 0.00 | 0.00 | 0.00 | 43 | 1013.3 |
| 20260509175832 | 97 | 109 | 3.0 | 5.0 | 0.00 | 0.00 | 0.00 | 42 | 1013.3 |
| 20260509175328 | 97 | 189 | 3.0 | 3.0 | 0.00 | 0.00 | 0.00 | 44 | 1013.4 |
| 20260509174824 | 97 | 236 | 6.0 | 10.0 | 0.00 | 0.00 | 0.00 | 46 | 1013.5 |
| 20260509174320 | 98 | 263 | 6.0 | 8.0 | 0.00 | 0.00 | 0.00 | 44 | 1013.8 |
| 20260509173816 | 98 | 256 | 5.0 | 8.0 | 0.00 | 0.00 | 0.00 | 45 | 1013.5 |
| 20260509173311 | 96 | 213 | 4.0 | 5.0 | 0.00 | 0.00 | 0.00 | 46 | 1013.7 |
| 20260509172808 | 96 | 182 | 3.0 | 5.0 | 0.00 | 0.00 | 0.00 | 45 | 1013.5 |
| 20260509172306 | 97 | 217 | 3.0 | 5.0 | 0.00 | 0.00 | 0.00 | 46 | 1013.7 |
| 20260509171800 | 97 | 217 | 5.0 | 9.0 | 0.00 | 0.00 | 0.00 | 46 | 1013.7 |
| 20260509171256 | 97 | 249 | 1.0 | 3.0 | 0.00 | 0.00 | 0.00 | 48 | 1013.7 |
| 20260509170753 | 95 | 164 | 4.0 | 6.0 | 0.00 | 0.00 | 0.00 | 49 | 1013.7 |
| 20260509170249 | 96 | 175 | 5.0 | 8.0 | 0.00 | 0.00 | 0.00 | 49 | 1013.7 |
| 20260509165748 | 96 | 219 | 3.0 | 7.0 | 0.00 | 0.00 | 0.00 | 48 | 1013.7 |
| 20260509165243 | 95 | 90 | 2.0 | 3.0 | 0.00 | 0.00 | 0.00 | 51 | 1013.8 |
| 20260509164739 | 95 | 230 | 6.0 | 8.0 | 0.00 | 0.00 | 0.00 | 50 | 1014.0 |
| 20260509164235 | 95 | 198 | 4.0 | 7.0 | 0.00 | 0.00 | 0.00 | 50 | 1014.0 |
| 20260509163733 | 94 | 324 | 6.0 | 8.0 | 0.00 | 0.00 | 0.00 | 50 | 1014.1 |
| 20260509163229 | 96 | 257 | 5.0 | 6.0 | 0.00 | 0.00 | 0.00 | 49 | 1014.2 |
| 20260509162727 | 96 | 211 | 6.0 | 8.0 | 0.00 | 0.00 | 0.00 | 51 | 1014.1 |
| 20260509162222 | 95 | 297 | 4.0 | 6.0 | 0.00 | 0.00 | 0.00 | 52 | 1013.9 |
| 20260509161717 | 94 | 220 | 5.0 | 7.0 | 0.00 | 0.00 | 0.00 | 52 | 1014.3 |
| 20260509161214 | 95 | 182 | 6.0 | 8.0 | 0.00 | 0.00 | 0.00 | 54 | 1014.2 |
| 20260509160709 | 94 | 127 | 8.0 | 11.0 | 0.00 | 0.00 | 0.00 | 53 | 1014.2 |
| 20260509160206 | 94 | 212 | 5.0 | 8.0 | 0.00 | 0.00 | 0.00 | 53 | 1014.3 |
| 20260509155701 | 95 | 231 | 6.0 | 10.0 | 0.00 | 0.00 | 0.00 | 53 | 1014.4 |
| 20260509155158 | 95 | 214 | 5.0 | 6.0 | 0.00 | 0.00 | 0.00 | 52 | 1014.4 |
| 20260509154654 | 94 | 172 | 5.0 | 6.0 | 0.00 | 0.00 | 0.00 | 52 | 1014.5 |
| 20260509154151 | 94 | 237 | 6.0 | 7.0 | 0.00 | 0.00 | 0.00 | 55 | 1014.9 |
| 20260509153648 | 94 | 234 | 4.0 | 6.0 | 0.00 | 0.00 | 0.00 | 56 | 1014.8 |
| 20260509153144 | 93 | 246 | 3.0 | 3.0 | 0.00 | 0.00 | 0.00 | 57 | 1014.7 |
| 20260509152640 | 92 | 325 | 1.0 | 2.0 | 0.00 | 0.00 | 0.00 | 57 | 1014.9 |
| 20260509152138 | 93 | 346 | 0.0 | 0.0 | 0.00 | 0.00 | 0.00 | 59 | 1015.2 |
| 20260509151634 | 92 | 138 | 1.0 | 2.0 | 0.00 | 0.00 | 0.00 | 60 | 1015.0 |
| 20260509151131 | 92 | 303 | 2.0 | 2.0 | 0.00 | 0.00 | 0.00 | 61 | 1015.1 |
| 20260509150629 | 91 | 220 | 6.0 | 8.0 | 0.00 | 0.00 | 0.00 | 60 | 1015.0 |
| 20260509150127 | 91 | 210 | 4.0 | 5.0 | 0.00 | 0.00 | 0.00 | 60 | 1015.1 |
| 20260509145623 | 92 | 225 | 5.0 | 8.0 | 0.00 | 0.00 | 0.00 | 57 | 1014.8 |
| 20260509145118 | 91 | 243 | 5.0 | 9.0 | 0.00 | 0.00 | 0.00 | 60 | 1015.2 |
| 20260509144615 | 91 | 277 | 4.0 | 6.0 | 0.00 | 0.00 | 0.00 | 60 | 1015.0 |
| 20260509144112 | 91 | 297 | 4.0 | 5.0 | 0.00 | 0.00 | 0.00 | 66 | 1015.1 |
| 20260509143609 | 90 | 232 | 4.0 | 5.0 | 0.00 | 0.00 | 0.00 | 72 | 1014.9 |
| 20260509143107 | 89 | 220 | 8.0 | 10.0 | 0.00 | 0.00 | 0.00 | 70 | 1014.9 |
| 20260509142602 | 89 | 158 | 4.0 | 7.0 | 0.00 | 0.00 | 0.00 | 74 | 1014.8 |
| 20260509142058 | 88 | 174 | 6.0 | 7.0 | 0.00 | 0.00 | 0.00 | 74 | 1014.8 |
| 20260509141555 | 88 | 212 | 4.0 | 5.0 | 0.00 | 0.00 | 0.00 | 74 | 1014.9 |
| 20260509141051 | 87 | 227 | 2.0 | 2.0 | 0.00 | 0.00 | 0.00 | 76 | 1014.8 |
| 20260509140548 | 87 | 251 | 3.0 | 5.0 | 0.00 | 0.00 | 0.00 | 79 | 1014.8 |
| 20260509140046 | 87 | 166 | 7.0 | 9.0 | 0.00 | 0.00 | 0.00 | 79 | 1014.8 |
| 20260509135543 | 87 | 197 | 4.0 | 5.0 | 0.00 | 0.00 | 0.00 | 79 | 1015.0 |
| 20260509135041 | 86 | 293 | 1.0 | 1.0 | 0.00 | 0.00 | 0.00 | 80 | 1015.1 |
| 20260509134537 | 86 | 116 | 5.0 | 7.0 | 0.00 | 0.00 | 0.00 | 82 | 1014.8 |
| 20260509134035 | 86 | 278 | 3.0 | 6.0 | 0.00 | 0.00 | 0.00 | 82 | 1014.9 |
| 20260509133532 | 86 | 252 | 5.0 | 8.0 | 0.00 | 0.00 | 0.00 | 81 | 1015.1 |
| 20260509133030 | 85 | 189 | 3.0 | 5.0 | 0.00 | 0.00 | 0.00 | 83 | 1015.2 |
| 20260509132528 | 85 | 208 | 3.0 | 3.0 | 0.00 | 0.00 | 0.00 | 84 | 1015.1 |
| 20260509132026 | 85 | 248 | 5.0 | 7.0 | 0.00 | 0.00 | 0.00 | 83 | 1015.0 |
| 20260509131522 | 85 | 295 | 3.0 | 5.0 | 0.00 | 0.00 | 0.00 | 82 | 1015.0 |
| 20260509131019 | 85 | 248 | 2.0 | 3.0 | 0.00 | 0.00 | 0.00 | 82 | 1014.9 |
| 20260509130514 | 83 | 311 | 0.0 | 0.0 | 0.00 | 0.00 | 0.00 | 84 | 1014.9 |
| 20260509130011 | 83 | 251 | 3.0 | 3.0 | 0.00 | 0.00 | 0.00 | 84 | 1014.8 |
| 20260509125508 | 83 | 292 | 0.0 | 0.0 | 0.00 | 0.00 | 0.00 | 85 | 1015.0 |
| 20260509125004 | 83 | 199 | 2.0 | 2.0 | 0.00 | 0.00 | 0.00 | 85 | 1014.7 |
| 20260509124501 | 82 | 306 | 0.0 | 0.0 | 0.00 | 0.00 | 0.00 | 88 | 1014.6 |
| 20260509123958 | 80 | 210 | 3.0 | 3.0 | 0.00 | 0.00 | 0.00 | 92 | 1014.7 |
| 20260509123456 | 78 | 294 | 0.0 | 1.0 | 0.00 | 0.00 | 0.00 | 96 | 1014.6 |
| 20260509122951 | 78 | 311 | 0.0 | 0.0 | 0.00 | 0.00 | 0.00 | 99 | 1014.6 |
| 20260509122448 | 78 | 314 | 1.0 | 1.0 | 0.00 | 0.00 | 0.00 | 99 | 1014.7 |
| 20260509121939 | 78 | 282 | 0.0 | 1.0 | 0.00 | 0.00 | 0.00 | 99 | 1014.5 |
| 20260509121436 | 77 | 319 | 0.0 | 0.0 | 0.00 | 0.00 | 0.00 | 99 | 1014.6 |
| 20260509120934 | 77 | 300 | 0.0 | 0.0 | 0.00 | 0.00 | 0.00 | 99 | 1014.5 |
| 20260509120432 | 77 | 300 | 0.0 | 1.0 | 0.00 | 0.00 | 0.00 | 99 | 1014.5 |
| 20260509115930 | 77 | 284 | 1.0 | 2.0 | 0.00 | 0.00 | 0.00 | 99 | 1014.6 |
| 20260509115426 | 77 | 294 | 0.0 | 0.0 | 0.00 | 0.00 | 0.00 | 99 | 1014.4 |
| 20260509114924 | 76 | 295 | 1.0 | 1.0 | 0.00 | 0.00 | 0.00 | 99 | 1014.4 |
| 20260509114423 | 76 | 288 | 0.0 | 1.0 | 0.00 | 0.00 | 0.00 | 99 | 1014.1 |
| 20260509113922 | 76 | 301 | 0.0 | 0.0 | 0.00 | 0.00 | 0.00 | 99 | 1014.3 |
| 20260509113419 | 76 | 284 | 0.0 | 1.0 | 0.00 | 0.00 | 0.00 | 99 | 1014.2 |
| 20260509112915 | 76 | 241 | 1.0 | 1.0 | 0.00 | 0.00 | 0.00 | 99 | 1014.3 |
| 20260509112413 | 76 | 279 | 0.0 | 0.0 | 0.00 | 0.00 | 0.00 | 99 | 1014.2 |
| 20260509111909 | 75 | 279 | 0.0 | 0.0 | 0.00 | 0.00 | 0.00 | 99 | 1014.2 |
| 20260509111406 | 75 | 279 | 0.0 | 0.0 | 0.00 | 0.00 | 0.00 | 99 | 1014.2 |
| 20260509110904 | 75 | 279 | 0.0 | 0.0 | 0.00 | 0.00 | 0.00 | 99 | 1014.2 |
| 20260509110359 | 75 | 285 | 0.0 | 1.0 | 0.00 | 0.00 | 0.00 | 99 | 1014.1 |
| 20260509105858 | 76 | 289 | 0.0 | 0.0 | 0.00 | 0.00 | 0.00 | 99 | 1014.1 |
| 20260509105356 | 76 | 276 | 1.0 | 2.0 | 0.00 | 0.00 | 0.00 | 99 | 1014.1 |
| 20260509104853 | 76 | 255 | 1.0 | 1.0 | 0.00 | 0.00 | 0.00 | 99 | 1014.0 |
| 20260509104349 | 76 | 235 | 1.0 | 2.0 | 0.00 | 0.00 | 0.00 | 99 | 1013.9 |
| 20260509103847 | 76 | 260 | 1.0 | 1.0 | 0.00 | 0.00 | 0.00 | 99 | 1014.0 |
| 20260509103344 | 76 | 229 | 1.0 | 2.0 | 0.00 | 0.00 | 0.00 | 99 | 1014.0 |
| 20260509102843 | 76 | 243 | 2.0 | 2.0 | 0.00 | 0.00 | 0.00 | 99 | 1013.6 |
| 20260509102340 | 75 | 208 | 1.0 | 2.0 | 0.00 | 0.00 | 0.00 | 99 | 1013.7 |
| 20260509101835 | 75 | 254 | 0.0 | 0.0 | 0.00 | 0.00 | 0.00 | 99 | 1013.9 |
| 20260509101332 | 75 | 118 | 2.0 | 2.0 | 0.00 | 0.00 | 0.00 | 99 | 1013.9 |
| 20260509100830 | 75 | 119 | 1.0 | 2.0 | 0.00 | 0.00 | 0.00 | 99 | 1013.8 |
| 20260509100327 | 75 | 28 | 0.0 | 0.0 | 0.00 | 0.00 | 0.00 | 99 | 1013.9 |
| 20260509095823 | 75 | 4 | 0.0 | 0.0 | 0.00 | 0.00 | 0.00 | 99 | 1014.0 |
| 20260509095320 | 75 | 4 | 0.0 | 0.0 | 0.00 | 0.00 | 0.00 | 99 | 1014.0 |
| 20260509094818 | 74 | 338 | 0.0 | 0.0 | 0.00 | 0.00 | 0.00 | 99 | 1013.8 |
| 20260509094314 | 74 | 338 | 0.0 | 0.0 | 0.00 | 0.00 | 0.00 | 99 | 1013.9 |
| 20260509093812 | 74 | 337 | 0.0 | 0.0 | 0.00 | 0.00 | 0.00 | 99 | 1013.9 |
| 20260509093309 | 74 | 341 | 0.0 | 0.0 | 0.00 | 0.00 | 0.00 | 99 | 1013.7 |
| 20260509092808 | 74 | 341 | 0.0 | 0.0 | 0.00 | 0.00 | 0.00 | 99 | 1013.8 |
| 20260509092306 | 75 | 341 | 0.0 | 0.0 | 0.00 | 0.00 | 0.00 | 99 | 1013.6 |
| 20260509091803 | 75 | 341 | 0.0 | 0.0 | 0.00 | 0.00 | 0.00 | 99 | 1013.7 |
| 20260509091259 | 75 | 243 | 0.0 | 1.0 | 0.00 | 0.00 | 0.00 | 99 | 1013.9 |
| 20260509090757 | 75 | 252 | 0.0 | 0.0 | 0.00 | 0.00 | 0.00 | 99 | 1013.5 |
| 20260509090254 | 75 | 176 | 1.0 | 1.0 | 0.00 | 0.00 | 0.00 | 99 | 1013.6 |
| 20260509085751 | 75 | 231 | 0.0 | 1.0 | 0.00 | 0.00 | 0.00 | 99 | 1013.8 |
| 20260509085248 | 75 | 249 | 0.0 | 0.0 | 0.00 | 0.00 | 0.00 | 99 | 1013.8 |
| 20260509084745 | 75 | 263 | 0.0 | 0.0 | 0.00 | 0.00 | 0.00 | 99 | 1013.6 |
| 20260509084241 | 75 | 250 | 0.0 | 0.0 | 0.00 | 0.00 | 0.00 | 99 | 1013.7 |
| 20260509083740 | 75 | 255 | 1.0 | 1.0 | 0.00 | 0.00 | 0.00 | 99 | 1013.8 |
| 20260509083236 | 74 | 294 | 0.0 | 0.0 | 0.00 | 0.00 | 0.00 | 99 | 1014.0 |
| 20260509082732 | 74 | 306 | 0.0 | 0.0 | 0.00 | 0.00 | 0.00 | 99 | 1014.0 |
| 20260509082229 | 74 | 306 | 0.0 | 0.0 | 0.00 | 0.00 | 0.00 | 99 | 1013.9 |
| 20260509081726 | 74 | 306 | 0.0 | 0.0 | 0.00 | 0.00 | 0.00 | 99 | 1013.9 |
| 20260509081224 | 74 | 306 | 0.0 | 0.0 | 0.00 | 0.00 | 0.00 | 99 | 1013.9 |
| 20260509080722 | 74 | 306 | 0.0 | 0.0 | 0.00 | 0.00 | 0.00 | 99 | 1013.9 |
| 20260509080219 | 74 | 306 | 0.0 | 0.0 | 0.00 | 0.00 | 0.00 | 99 | 1013.9 |
| 20260509075717 | 74 | 307 | 0.0 | 0.0 | 0.00 | 0.00 | 0.00 | 99 | 1014.2 |
| 20260509075215 | 74 | 307 | 0.0 | 0.0 | 0.00 | 0.00 | 0.00 | 99 | 1014.0 |
| 20260509074711 | 74 | 307 | 0.0 | 0.0 | 0.00 | 0.00 | 0.00 | 99 | 1014.0 |
| 20260509074209 | 74 | 307 | 0.0 | 0.0 | 0.00 | 0.00 | 0.00 | 99 | 1014.0 |
| 20260509073705 | 74 | 307 | 0.0 | 0.0 | 0.00 | 0.00 | 0.00 | 99 | 1014.1 |
| 20260509073201 | 74 | 306 | 0.0 | 0.0 | 0.00 | 0.00 | 0.00 | 99 | 1014.0 |
| 20260509072658 | 74 | 306 | 0.0 | 0.0 | 0.00 | 0.00 | 0.00 | 99 | 1014.1 |
| 20260509072155 | 74 | 306 | 0.0 | 0.0 | 0.00 | 0.00 | 0.00 | 99 | 1013.9 |
| 20260509071651 | 74 | 306 | 0.0 | 0.0 | 0.00 | 0.00 | 0.00 | 99 | 1014.1 |
| 20260509071149 | 74 | 307 | 0.0 | 0.0 | 0.00 | 0.00 | 0.00 | 99 | 1014.1 |
| 20260509070646 | 75 | 308 | 0.0 | 0.0 | 0.00 | 0.00 | 0.00 | 99 | 1014.2 |
| 20260509070142 | 74 | 308 | 0.0 | 0.0 | 0.00 | 0.00 | 0.00 | 99 | 1014.3 |
| 20260509065638 | 75 | 308 | 0.0 | 0.0 | 0.00 | 0.00 | 0.00 | 99 | 1014.2 |
| 20260509065134 | 74 | 306 | 0.0 | 0.0 | 0.00 | 0.00 | 0.00 | 99 | 1014.4 |
| 20260509064631 | 75 | 306 | 0.0 | 0.0 | 0.00 | 0.00 | 0.00 | 99 | 1014.3 |
| 20260509064129 | 75 | 306 | 0.0 | 0.0 | 0.00 | 0.00 | 0.00 | 99 | 1014.4 |
| 20260509063626 | 75 | 306 | 0.0 | 0.0 | 0.00 | 0.00 | 0.00 | 99 | 1014.3 |
| 20260509063122 | 75 | 306 | 0.0 | 0.0 | 0.00 | 0.00 | 0.00 | 99 | 1014.4 |
| 20260509062620 | 75 | 304 | 0.0 | 0.0 | 0.00 | 0.00 | 0.00 | 99 | 1014.4 |
| 20260509062116 | 75 | 304 | 0.0 | 0.0 | 0.00 | 0.00 | 0.00 | 99 | 1014.4 |
| 20260509061613 | 75 | 304 | 0.0 | 0.0 | 0.00 | 0.00 | 0.00 | 99 | 1014.3 |
| 20260509061111 | 75 | 304 | 0.0 | 0.0 | 0.00 | 0.00 | 0.00 | 99 | 1014.5 |
| 20260509060609 | 76 | 304 | 0.0 | 0.0 | 0.00 | 0.00 | 0.00 | 99 | 1014.4 |
| 20260509060104 | 76 | 304 | 0.0 | 0.0 | 0.00 | 0.00 | 0.00 | 99 | 1014.6 |
| 20260509055600 | 76 | 290 | 0.0 | 0.0 | 0.00 | 0.00 | 0.00 | 99 | 1014.6 |
| 20260509055056 | 76 | 290 | 0.0 | 0.0 | 0.00 | 0.00 | 0.00 | 99 | 1014.8 |
| 20260509054553 | 76 | 290 | 0.0 | 0.0 | 0.00 | 0.00 | 0.00 | 98 | 1014.7 |
| 20260509054051 | 76 | 268 | 0.0 | 0.0 | 0.00 | 0.00 | 0.00 | 99 | 1014.8 |
| 20260509053549 | 76 | 279 | 0.0 | 0.0 | 0.00 | 0.00 | 0.00 | 99 | 1014.8 |
| 20260509053045 | 76 | 253 | 1.0 | 1.0 | 0.00 | 0.00 | 0.00 | 99 | 1014.8 |
| 20260509052543 | 76 | 286 | 0.0 | 0.0 | 0.00 | 0.00 | 0.00 | 98 | 1014.7 |
| 20260509052041 | 76 | 287 | 0.0 | 0.0 | 0.00 | 0.00 | 0.00 | 98 | 1014.9 |
| 20260509051539 | 76 | 288 | 0.0 | 0.0 | 0.00 | 0.00 | 0.00 | 98 | 1015.2 |
| 20260509051036 | 76 | 287 | 1.0 | 1.0 | 0.00 | 0.00 | 0.00 | 98 | 1015.1 |
| 20260509050533 | 77 | 287 | 0.0 | 0.0 | 0.00 | 0.00 | 0.00 | 98 | 1015.3 |
| 20260509050029 | 77 | 293 | 1.0 | 1.0 | 0.00 | 0.00 | 0.00 | 98 | 1015.6 |
| 20260509045526 | 77 | 297 | 0.0 | 1.0 | 0.00 | 0.00 | 0.00 | 98 | 1015.4 |
| 20260509045023 | 77 | 309 | 2.0 | 2.0 | 0.00 | 0.00 | 0.00 | 98 | 1015.4 |
| 20260509044521 | 77 | 223 | 2.0 | 2.0 | 0.00 | 0.00 | 0.00 | 99 | 1015.2 |
| 20260509044018 | 77 | 305 | 1.0 | 1.0 | 0.00 | 0.00 | 0.00 | 98 | 1015.3 |
| 20260509043514 | 77 | 277 | 0.0 | 0.0 | 0.00 | 0.00 | 0.00 | 98 | 1015.3 |
| 20260509043010 | 77 | 289 | 1.0 | 2.0 | 0.00 | 0.00 | 0.00 | 98 | 1015.4 |
| 20260509042501 | 77 | 232 | 1.0 | 2.0 | 0.00 | 0.00 | 0.00 | 98 | 1015.0 |
| 20260509041956 | 77 | 278 | 0.0 | 0.0 | 0.00 | 0.00 | 0.00 | 98 | 1014.8 |
| 20260509041454 | 77 | 276 | 0.0 | 1.0 | 0.00 | 0.00 | 0.00 | 98 | 1014.9 |
| 20260509040952 | 77 | 263 | 0.0 | 0.0 | 0.00 | 0.00 | 0.00 | 98 | 1014.9 |
| 20260509040450 | 77 | 271 | 0.0 | 0.0 | 0.00 | 0.00 | 0.00 | 98 | 1014.8 |
| 20260509035946 | 77 | 282 | 1.0 | 1.0 | 0.00 | 0.00 | 0.00 | 98 | 1014.9 |
| 20260509035442 | 78 | 263 | 0.0 | 1.0 | 0.00 | 0.00 | 0.00 | 97 | 1014.9 |
| 20260509034939 | 78 | 260 | 0.0 | 0.0 | 0.00 | 0.00 | 0.00 | 97 | 1014.7 |
| 20260509034437 | 78 | 258 | 1.0 | 1.0 | 0.00 | 0.00 | 0.00 | 97 | 1014.9 |
| 20260509033934 | 78 | 244 | 0.0 | 1.0 | 0.00 | 0.00 | 0.00 | 97 | 1015.0 |
| 20260509033431 | 78 | 261 | 1.0 | 1.0 | 0.00 | 0.00 | 0.00 | 96 | 1014.9 |
| 20260509032928 | 78 | 126 | 1.0 | 1.0 | 0.00 | 0.00 | 0.00 | 96 | 1014.9 |
| 20260509032425 | 78 | 96 | 1.0 | 1.0 | 0.00 | 0.00 | 0.00 | 96 | 1015.0 |
| 20260509031923 | 78 | 105 | 1.0 | 1.0 | 0.00 | 0.00 | 0.00 | 96 | 1014.7 |
| 20260509031420 | 78 | 184 | 1.0 | 3.0 | 0.00 | 0.00 | 0.00 | 96 | 1014.8 |
| 20260509030917 | 78 | 154 | 2.0 | 3.0 | 0.00 | 0.00 | 0.00 | 96 | 1014.7 |
| 20260509030415 | 78 | 157 | 1.0 | 2.0 | 0.00 | 0.00 | 0.00 | 96 | 1014.7 |
| 20260509025912 | 78 | 186 | 2.0 | 2.0 | 0.00 | 0.00 | 0.00 | 96 | 1014.7 |
| 20260509025408 | 78 | 175 | 0.0 | 1.0 | 0.00 | 0.00 | 0.00 | 96 | 1014.7 |
| 20260509024903 | 78 | 179 | 1.0 | 1.0 | 0.00 | 0.00 | 0.00 | 96 | 1014.9 |
| 20260509024359 | 78 | 165 | 2.0 | 2.0 | 0.00 | 0.00 | 0.00 | 96 | 1015.0 |
| 20260509023856 | 78 | 216 | 1.0 | 1.0 | 0.00 | 0.00 | 0.00 | 95 | 1014.6 |
| 20260509023354 | 78 | 151 | 1.0 | 1.0 | 0.00 | 0.00 | 0.00 | 95 | 1015.0 |
| 20260509022850 | 78 | 35 | 0.0 | 0.0 | 0.00 | 0.00 | 0.00 | 95 | 1014.7 |
| 20260509022347 | 78 | 231 | 0.0 | 0.0 | 0.00 | 0.00 | 0.00 | 94 | 1014.9 |
| 20260509021844 | 78 | 171 | 1.0 | 2.0 | 0.00 | 0.00 | 0.00 | 94 | 1014.7 |
| 20260509021341 | 79 | 192 | 1.0 | 2.0 | 0.00 | 0.00 | 0.00 | 94 | 1014.6 |
| 20260509020839 | 79 | 210 | 1.0 | 1.0 | 0.00 | 0.00 | 0.00 | 93 | 1014.4 |
| 20260509020337 | 79 | 199 | 2.0 | 2.0 | 0.00 | 0.00 | 0.00 | 93 | 1014.7 |
| 20260509015834 | 79 | 201 | 1.0 | 2.0 | 0.00 | 0.00 | 0.00 | 92 | 1014.5 |
| 20260509015332 | 79 | 193 | 2.0 | 2.0 | 0.00 | 0.00 | 0.00 | 92 | 1014.5 |
| 20260509014829 | 80 | 135 | 0.0 | 2.0 | 0.00 | 0.00 | 0.00 | 92 | 1014.4 |
| 20260509014326 | 80 | 147 | 2.0 | 3.0 | 0.00 | 0.00 | 0.00 | 91 | 1014.5 |
| 20260509013823 | 80 | 204 | 1.0 | 1.0 | 0.00 | 0.00 | 0.00 | 91 | 1014.2 |
| 20260509013319 | 80 | 88 | 2.0 | 2.0 | 0.00 | 0.00 | 0.00 | 91 | 1014.2 |
| 20260509012815 | 80 | 110 | 1.0 | 1.0 | 0.00 | 0.00 | 0.00 | 90 | 1014.2 |
| 20260509012312 | 80 | 164 | 2.0 | 2.0 | 0.00 | 0.00 | 0.00 | 90 | 1014.0 |
| 20260509011809 | 80 | 108 | 2.0 | 2.0 | 0.00 | 0.00 | 0.00 | 89 | 1014.2 |
| 20260509011306 | 80 | 130 | 2.0 | 2.0 | 0.00 | 0.00 | 0.00 | 89 | 1014.2 |
| 20260509010804 | 81 | 150 | 1.0 | 2.0 | 0.00 | 0.00 | 0.00 | 88 | 1014.2 |
| 20260509010300 | 81 | 73 | 2.0 | 2.0 | 0.00 | 0.00 | 0.00 | 88 | 1014.1 |
| 20260509005758 | 81 | 156 | 1.0 | 1.0 | 0.00 | 0.00 | 0.00 | 87 | 1014.2 |
| 20260509005250 | 81 | 203 | 2.0 | 2.0 | 0.00 | 0.00 | 0.00 | 86 | 1014.1 |
| 20260509004749 | 81 | 164 | 1.0 | 1.0 | 0.00 | 0.00 | 0.00 | 86 | 1014.3 |
| 20260509004246 | 82 | 235 | 0.0 | 0.0 | 0.00 | 0.00 | 0.00 | 85 | 1014.3 |
| 20260509003745 | 82 | 67 | 1.0 | 1.0 | 0.00 | 0.00 | 0.00 | 84 | 1014.2 |
| 20260509003242 | 82 | 140 | 0.0 | 1.0 | 0.00 | 0.00 | 0.00 | 84 | 1014.0 |
| 20260509002739 | 82 | 119 | 2.0 | 2.0 | 0.00 | 0.00 | 0.00 | 83 | 1013.8 |
| 20260509002237 | 82 | 181 | 1.0 | 1.0 | 0.00 | 0.00 | 0.00 | 83 | 1013.8 |
| 20260509001734 | 82 | 81 | 0.0 | 0.0 | 0.00 | 0.00 | 0.00 | 82 | 1013.7 |
| 20260509001229 | 83 | 135 | 1.0 | 2.0 | 0.00 | 0.00 | 0.00 | 81 | 1013.7 |
| 20260509000722 | 83 | 129 | 2.0 | 2.0 | 0.00 | 0.00 | 0.00 | 80 | 1013.8 |
| 20260509000219 | 83 | 104 | 2.0 | 2.0 | 0.00 | 0.00 | 0.00 | 79 | 1013.7 |
| 20260508235716 | 84 | 63 | 1.0 | 1.0 | 0.00 | 0.00 | 0.00 | 78 | 1013.4 |
| 20260508235213 | 84 | 80 | 1.0 | 1.0 | 0.00 | 0.00 | 0.00 | 77 | 1013.5 |
| 20260508234710 | 84 | 176 | 2.0 | 2.0 | 0.00 | 0.00 | 0.00 | 76 | 1013.6 |
| 20260508234206 | 84 | 179 | 3.0 | 3.0 | 0.00 | 0.00 | 0.00 | 76 | 1013.4 |
| 20260508233706 | 85 | 128 | 3.0 | 5.0 | 0.00 | 0.00 | 0.00 | 76 | 1013.1 |